Weather History for Worcester, MA

Change the Weather History Date:

Friday, April 6, 2012

  Actual Average Record
Temperature  
Mean Temperature 40 °F 42 °F  
Max Temperature 49 °F 51 °F 79 °F (1928)
Min Temperature 30 °F 34 °F 15 °F (1982)
Degree Days  
Heating Degree Days 25 23  
Month to date heating degree days 137 142  
Since 1 July heating degree days 4707 5918  
Cooling Degree Days 0 0  
Month to date cooling degree days 0 0  
Year to date cooling degree days 2 0  
Moisture  
Dew Point 18 °F    
Average Humidity 45    
Maximum Humidity 63    
Minimum Humidity 26    
Precipitation  
Precipitation 0.00 in 0.14 in 2.18 in (1958)
Month to date precipitation 0.21 0.86  
Year to date precipitation 6.32 11.79  
Snow  
Snow 0.00 in 0.10 in 14.20 in (1982)
Month to date snowfall 0.0 0.9  
Since 1 July snowfall 39.7 62.2  
Snow Depth 0.00 in    
Sea Level Pressure  
Sea Level Pressure 29.93 in    
Wind  
Wind Speed 11 mph (NW)    
Max Wind Speed 20 mph    
Max Gust Speed 25 mph    
Visibility 10 miles    
Events      
T = Trace of Precipitation, MM = Missing Value Source: NWS Daily Summary

Daily Weather History Graph

Daily Weather History Graph

Search for Another Location

Airport:

Trip Planner

Search our weather history database for the weather conditions in past years. The results will help you decide how hot, cold, wet, or windy it might be!

Date:

Astronomy

Apr. 06, 2012 Rise Set
Actual Time 6:20 AM EDT 7:19 PM EDT
Civil Twilight 5:52 AM EDT 7:48 PM EDT
Nautical Twilight 5:18 AM EDT 8:22 PM EDT
Astronomical Twilight 4:42 AM EDT 8:57 PM EDT
Moon 7:36 PM EDT (4/6) 5:50 AM EDT (4/6)
Length of Visible Light 13h 55m
Length of Day
12h 58m
Full, 100% of the Moon is Illuminated
Apr 6
Full
Apr 6
Full
Apr 13
Last Quarter
Apr 21
New
Apr 29
First Quarter

Hourly Weather History & Observations

Time (EDT) Temp. Windchill Dew Point Humidity Pressure Visibility Wind Dir Wind Speed Gust Speed Precip Events Conditions
12:54 AM 34.0 °F 27.2 °F 19.0 °F 54% 29.91 in 10.0 mi West 8.1 mph - N/A   Clear
1:54 AM 33.1 °F 26.1 °F 19.0 °F 56% 29.91 in 10.0 mi West 8.1 mph - N/A   Clear
2:54 AM 33.1 °F 24.9 °F 19.9 °F 59% 29.91 in 10.0 mi WNW 10.4 mph - N/A   Clear
3:54 AM 32.0 °F 24.2 °F 19.4 °F 60% 29.88 in 10.0 mi WNW 9.2 mph - N/A   Clear
4:54 AM 30.9 °F 22.8 °F 19.9 °F 64% 29.92 in 10.0 mi WNW 9.2 mph - N/A   Clear
5:54 AM 30.0 °F 21.7 °F 19.9 °F 66% 29.92 in 10.0 mi WNW 9.2 mph - N/A   Partly Cloudy
6:54 AM 30.9 °F 22.8 °F 19.9 °F 64% 29.92 in 10.0 mi WNW 9.2 mph - N/A   Clear
7:54 AM 35.1 °F 27.4 °F 21.0 °F 57% 29.94 in 10.0 mi WNW 10.4 mph - N/A   Overcast
8:54 AM 37.9 °F 29.6 °F 19.9 °F 48% 29.94 in 10.0 mi NW 13.8 mph 18.4 mph N/A   Partly Cloudy
9:54 AM 39.0 °F 32.3 °F 19.0 °F 45% 29.95 in 10.0 mi North 10.4 mph - N/A   Overcast
10:54 AM 41.0 °F 33.5 °F 19.0 °F 41% 29.95 in 10.0 mi NNW 13.8 mph 17.3 mph N/A   Mostly Cloudy
11:54 AM 41.0 °F 35.8 °F 19.0 °F 41% 29.94 in 10.0 mi WNW 8.1 mph 16.1 mph N/A   Overcast
12:54 PM 44.1 °F 39.5 °F 19.0 °F 37% 29.92 in 10.0 mi North 8.1 mph 20.7 mph N/A   Scattered Clouds
1:54 PM 46.0 °F 41.0 °F 19.9 °F 35% 29.90 in 10.0 mi WNW 10.4 mph 19.6 mph N/A   Partly Cloudy
2:54 PM 48.0 °F - 17.1 °F 29% 29.89 in 10.0 mi NNW 11.5 mph 24.2 mph N/A   Partly Cloudy
3:54 PM 48.9 °F - 16.0 °F 27% 29.88 in 10.0 mi North 16.1 mph 20.7 mph N/A   Clear
4:54 PM 48.9 °F - 15.1 °F 26% 29.88 in 10.0 mi NW 10.4 mph 19.6 mph N/A   Clear
5:54 PM 48.0 °F - 16.0 °F 28% 29.90 in 10.0 mi NW 13.8 mph 20.7 mph N/A   Clear
6:54 PM 46.0 °F 41.0 °F 16.0 °F 30% 29.92 in 10.0 mi NW 10.4 mph - N/A   Clear
7:54 PM 44.1 °F 39.5 °F 15.1 °F 31% 29.94 in 10.0 mi NNW 8.1 mph - N/A   Clear
8:54 PM 43.0 °F 36.8 °F 12.9 °F 30% 29.97 in 10.0 mi NNW 11.5 mph - N/A   Clear
9:54 PM 41.0 °F 34.7 °F 12.9 °F 32% 29.99 in 10.0 mi North 10.4 mph 18.4 mph N/A   Clear
10:54 PM 39.9 °F 33.4 °F 12.9 °F 33% 29.99 in 10.0 mi North 10.4 mph - N/A   Clear
11:54 PM 39.0 °F 32.3 °F 14.0 °F 36% 29.99 in 10.0 mi NNW 10.4 mph - N/A   Clear